Location: Mary A Oil Field
(38.5606°N, 98.9545°W)
Time: 19:07:56
(UTC+00:00)

Cosmos 1607 - Pass Details

Date: 20 January 2020
Orbit: 923 x 979 km, 65.0° (Epoch: 28 February)

Event Time Altitude Azimuth Distance (km) Brightness Sun altitude
Rises 00:02:49 0° 212° (SSW) 3,551 8.0 -4.4°
Reaches altitude 10° 00:05:19 10° 213° (SSW) 2,612 7.2 -4.9°
Maximum altitude 00:11:25 81° 301° (WNW) 941 4.1 -6.0°
Drops below altitude 10° 00:17:35 10° 29° (NNE) 2,643 5.8 -7.1°
Enters shadow 00:20:04 - 31° (NNE) 3,573 6.5 -7.6°
